Beaufort MCAS, SC

6:08 AM EDT on June 25, 2017 (GMT -0400)
Beaufort Marine Corps Air Station

Weather History for KNBC - January, 2012

Change the Weather History Date:

Thursday, January 12, 2012

  Actual Average Record
Temperature  
Mean Temperature 56 °F -  
Max Temperature 66 °F 55 °F 79 °F (1950)
Min Temperature 45 °F 37 °F 20 °F (1981)
Degree Days  
Heating Degree Days 10    
Growing Degree Days 6 (Base 50)    
Moisture  
Dew Point 45 °F    
Average Humidity 67    
Maximum Humidity 83    
Minimum Humidity 45    
Precipitation  
Precipitation 0.00 in - - ()
Sea Level Pressure  
Sea Level Pressure 29.77 in    
Wind  
Wind Speed 9 mph (South)    
Max Wind Speed 18 mph    
Max Gust Speed 28 mph    
Visibility 10 miles    
Events      
Averages and records for this station are not official NWS values.
T = Trace of Precipitation, MM = Missing Value Source: NWS Daily Summary

Daily Weather History Graph

Daily Weather History Graph

Search for Another Location

Airport or City:

Trip Planner

Search our weather history database for the weather conditions in past years. The results will help you decide how hot, cold, wet, or windy it might be!

Date:

Astronomy

Jan. 12, 2012 Rise Set
Actual Time 7:25 AM EST 5:37 PM EST
Civil Twilight 6:58 AM EST 6:03 PM EST
Nautical Twilight 6:28 AM EST 6:34 PM EST
Astronomical Twilight 5:58 AM EST 7:03 PM EST
Moon 9:24 PM EST (1/12) 9:22 AM EST (1/12)
Length of Visible Light 11h 05m
Length of Day
10h 11m
Waning Gibbous, 87% of the Moon is Illuminated
Jan 12
Waning Gibbous
Jan 16
Last Quarter
Jan 23
New
Jan 30
First Quarter
Feb 7
Full

Hourly Weather History & Observations

Time (EST) Temp. Windchill Dew Point Humidity Pressure Visibility Wind Dir Wind Speed Gust Speed Precip Events Conditions
12:56 AM 48.9 °F - 41.0 °F 74% 29.77 in 10.0 mi SSW 6.9 mph - N/A   Clear
1:56 AM 48.9 °F - 39.9 °F 71% 29.77 in 10.0 mi SW 8.1 mph - N/A   Clear
2:56 AM 46.0 °F 43.1 °F 39.9 °F 79% 29.78 in 10.0 mi SSW 5.8 mph - N/A   Clear
3:56 AM 45.0 °F 41.2 °F 39.0 °F 80% 29.78 in 10.0 mi South 6.9 mph - N/A   Clear
4:56 AM 45.0 °F 40.6 °F 39.9 °F 82% 29.80 in 10.0 mi SSW 8.1 mph - N/A   Clear
5:56 AM 45.0 °F 41.8 °F 39.9 °F 82% 29.80 in 10.0 mi South 5.8 mph - N/A   Clear
6:56 AM 45.0 °F 41.2 °F 39.9 °F 82% 29.81 in 10.0 mi SSW 6.9 mph - N/A   Clear
7:56 AM 46.0 °F 42.5 °F 41.0 °F 83% 29.83 in 10.0 mi SSW 6.9 mph - N/A   Scattered Clouds
8:56 AM 51.1 °F - 44.1 °F 77% 29.85 in 10.0 mi South 9.2 mph - N/A   Clear
9:56 AM 54.0 °F - 44.1 °F 69% 29.86 in 10.0 mi SSW 9.2 mph 19.6 mph N/A   Scattered Clouds
10:56 AM 59.0 °F - 45.0 °F 60% 29.85 in 10.0 mi SW 16.1 mph 26.5 mph N/A   Mostly Cloudy
11:56 AM 60.1 °F - 45.0 °F 57% 29.80 in 10.0 mi South 17.3 mph 24.2 mph N/A   Clear
12:56 PM 63.0 °F - 46.0 °F 54% 29.77 in 10.0 mi SSW 12.7 mph 19.6 mph N/A   Scattered Clouds
1:56 PM 64.9 °F - 45.0 °F 48% 29.74 in 10.0 mi SSW 18.4 mph 23.0 mph N/A   Scattered Clouds
2:56 PM 66.9 °F - 45.0 °F 45% 29.73 in 10.0 mi South 12.7 mph 20.7 mph N/A   Scattered Clouds
3:56 PM 66.0 °F - 45.0 °F 47% 29.73 in 10.0 mi South 9.2 mph 16.1 mph N/A   Mostly Cloudy
4:56 PM 61.0 °F - 51.1 °F 70% 29.74 in 10.0 mi SE 6.9 mph - N/A   Clear
5:56 PM 57.9 °F - 51.1 °F 78% 29.71 in 10.0 mi SE 5.8 mph - N/A   Clear
6:56 PM 59.0 °F - 50.0 °F 72% 29.71 in 10.0 mi SE 8.1 mph - N/A   Clear
7:56 PM 60.1 °F - 50.0 °F 69% 29.71 in 10.0 mi SE 10.4 mph - N/A   Scattered Clouds
8:56 PM 63.0 °F - 50.0 °F 63% 29.70 in 10.0 mi South 10.4 mph 21.9 mph N/A   Partly Cloudy
9:56 PM 64.0 °F - 51.1 °F 63% 29.73 in 10.0 mi South 18.4 mph 26.5 mph N/A   Mostly Cloudy
10:56 PM 62.1 °F - 48.9 °F 62% 29.77 in 10.0 mi WSW 13.8 mph 27.6 mph N/A   Mostly Cloudy
11:56 PM 57.0 °F - 37.0 °F 47% 29.81 in 10.0 mi WSW 15.0 mph 24.2 mph N/A   Partly Cloudy